Air Resources Laboratory banner image
Air Resources Laboratory web site National Oceanic and Atmospheric Administration (NOAA)

mn roundup


Office: MPX

ASUS43 KMPX 170710
RWRMN
WEATHER ROUNDUP FOR MINNESOTA
NATIONAL WEATHER SERVICE TWIN CITIES/CHANHASSEN MN
200 AM CDT WED AUG 17 2022


NOTE: "FAIR" INDICATES FEW OR NO CLOUDS BELOW 12,000 FEET WITH NO
SIGNIFICANT WEATHER AND/OR OBSTRUCTIONS TO VISIBILITY. N/A MEANS
CURRENT SKY AND/OR WEATHER CONDITIONS ARE NOT AVAILABLE.

MNZ060>063-068>070-170800-
   Twin Cities Metro

CITY           SKY/WX    TMP DP  RH WIND       PRES   REMARKS
TWIN CITIES    PTCLDY    71  58  63 S3        30.14
ST PAUL        PTCLDY    68  63  84 SE5       30.14
CRYSTAL        PTCLDY    69  58  67 S3        30.12
LAKEVILLE      PTCLDY    59  59 100 CALM      30.15S
EDEN PRAIRIE   PTCLDY    66  58  75 SW6       30.13
$$
MNZ001>005-007-008-013>017-022>024-027-028-170800-
   Northwest Minnesota

CITY           SKY/WX    TMP DP  RH WIND       PRES   REMARKS
HALLOCK        CLEAR     61  61 100 CALM      30.04R
ROSEAU           N/A     63  63 100 CALM      30.06S FOG
WARROAD        CLEAR     63  57  82 CALM      30.07R
THIEF RVR FALL PTCLDY    63  63 100 S6        30.07S
CROOKSTON      CLEAR     66  63  88 SE6       30.05F
FOSSTON        PTCLDY    66  61  82 S12       30.08S
DETROIT LAKES  PTCLDY    68  63  83 S5        30.10S
PARK RAPIDS    PTCLDY    65  61  87 S3        30.11
$$
MNZ006-009>011-018-025>026-170800-
   North Central Minnesota

CITY           SKY/WX    TMP DP  RH WIND       PRES   REMARKS
BAUDETTE       FOG       68  66  93 W3        30.06S VSB 3/4
WASKISH        PTCLDY    68  64  88 S3        30.07S
BIG FORK       CLEAR     63  61  94 CALM      30.14S
GRAND RAPIDS   MOCLDY    63  62  97 S3        30.13
COOK           PTCLDY    64  61  88 S6        30.10S
WALKER         SUNNY     64  63  96 SW5       30.11R
$$
MNZ012-019>021-037-170800-
   Northeast Minnesota

CITY           SKY/WX    TMP DP  RH WIND       PRES   REMARKS
DULUTH         MOCLDY    60  58  92 SE3       30.14S
ELY            MOCLDY    61  61 100 S3        30.13S
HIBBING        MOCLDY    61  61 100 VRB3      30.12S FOG
EVELETH        CLOUDY    59  59 100 CALM      30.14S
DULUTH HARBOR  MOCLDY    61  59  94 CALM      30.13S
TWO HARBORS    MOCLDY    61  61 100 CALM      30.14R
GRAND MARAIS     N/A     60  56  86 CALM      30.13S
G MARAIS ARPRT MOCLDY    57  54  88 CALM      30.16S
$$
MNZ029>031-032-039>041-046>048-054>057-064-170800-
   West Central Minnesota

CITY           SKY/WX    TMP DP  RH WIND       PRES   REMARKS
WHEATON          N/A     66  61  82 S6        30.11S
MORRIS         CLEAR     61  61 100 SE6       30.13R
ELBOW LAKE     FAIR      64  62  96 S7        30.12R
WADENA         CLEAR     64  63  94 CALM      30.11S
GLENWOOD       CLEAR     63  61  94 CALM      30.14S
APPLETON         N/A     66  61  82 W3        30.12R
BENSON         CLEAR     63  61  94 CALM      30.14S
ORTONVILLE       N/A     64  61  88 S3        30.11S
MADISON        PTCLDY    63  61  94 S5        30.14S
$$
MNZ033>034-036-042>043-049>051-058-059-170800-
   Central Minnesota

CITY           SKY/WX    TMP DP  RH WIND       PRES   REMARKS
ST CLOUD       PTCLDY    63  62  97 CALM      30.13
PAYNESVILLE    CLEAR     63  61  94 CALM      30.14S
AITKIN         MOCLDY    64  63  94 CALM      30.12F
PINE RIVER       N/A     63  61  94 CALM      30.14F
BRAINERD       MOCLDY    66  62  87 CALM      30.12
STAPLES        CLOUDY    66  63  88 S3        30.12S
LITTLE FALLS   PTCLDY    64  61  88 CALM      30.13S
CAMP RIPLEY    PTSUNNY   66  62  89 SE3       30.11S
LITCHFIELD     PTCLDY    66  64  94 CALM      30.14S
$$
MNZ037-044-045-052-053-170800-
   East Central Minnesota

CITY           SKY/WX    TMP DP  RH WIND       PRES   REMARKS
PRINCETON      PTCLDY    66  61  82 CALM      30.14S
CAMBRIDGE      PTCLDY    68  55  64 CALM      30.14S
MOOSE LAKE     CLOUDY    61  59  94 CALM      30.14S
HINCKLEY       PTSUNNY   64  63  94 CALM      30.14S
MCGREGOR       PTCLDY    64  63  94 CALM      30.13F
$$
MNZ071>073-080-081-089-090-097-098-170800-
   Southwest Minnesota

CITY           SKY/WX    TMP DP  RH WIND       PRES   REMARKS
MONTEVIDEO     CLEAR     64  61  88 S5        30.13F
GRANITE FALLS  CLEAR     62  60  93 S7        30.15S
CANBY          CLEAR     64  60  87 CALM      30.15R
MARSHALL       CLEAR     63  60  90 SW7       30.15
REDWOOD FALLS  CLEAR     63  61  93 CALM      30.13
OLIVIA         CLEAR     63  59  88 SE3       30.13F
WINDOM         FOG       59  57  94 CALM      30.16S VSB 3/4
WORTHINGTON    CLEAR     60  59  96 CALM      30.18
JACKSON          N/A     59  59 100 S3        30.18S VSB 1
TRACY          CLEAR     64  59  84 SW7       30.15F
$$
MNZ065>067-074>077-082>085-091>093-170800-
   South Central Minnesota

CITY           SKY/WX    TMP DP  RH WIND       PRES   REMARKS
MANKATO        CLEAR     64  59  83 S6        30.15
NEW ULM        CLEAR     63  59  88 SE5       30.15S
ST JAMES       CLEAR     63  61  94 CALM      30.15S
FAIRMONT       CLEAR     60  59  96 CALM      30.17
GLENCOE        CLEAR     65  61  87 CALM      30.14F
FARIBAULT      CLEAR     57  55  94 CALM      30.16S
OWATONNA         N/A     61  57  88 SE5       30.16S
WASECA         CLEAR     57  55  94 CALM      30.18R
ALBERT LEA     CLEAR     57  57 100 CALM      30.17S FOG
$$
MNZ078>079-086>088-094>096-170800-
   Southeast Minnesota

CITY           SKY/WX    TMP DP  RH WIND       PRES   REMARKS
RED WING       PTCLDY    57  55  94 CALM      30.14S
DODGE CENTER   CLEAR     59  55  88 CALM      30.18R
WINONA         CLEAR     61  61 100 CALM      30.16S
AUSTIN         CLEAR     57  55  94 CALM      30.17S
PRESTON        CLEAR     62  57  86 E5        30.17S
$$
ABBREVIATIONS USED IN REMARKS
   TC - TEMPERATURES IN CELSIUS
  WCI - WIND CHILL INDEX
   HX - HEAT INDEX
  VSB - VISIBILITY
$$




Office: FSD ASUS43 KFSD 170702 RWRSD WEATHER ROUNDUP FOR SOUTH DAKOTA NATIONAL WEATHER SERVICE SIOUX FALLS SD 200 AM CDT WED AUG 17 2022 NOTE: "FAIR" INDICATES FEW OR NO CLOUDS BELOW 12,000 FEET WITH NO SIGNIFICANT WEATHER AND/OR OBSTRUCTIONS TO VISIBILITY. SDZ001>005-009-010-012>017-170800- NORTHWEST AND NORTH CENTRAL SOUTH DAKOTA CITY SKY/WX TMP DP RH WIND PRES REMARKS BUFFALO N/A 67 53 61 SE7 30.08S FAITH N/A 63 57 81 S14 30.11F MOBRIDGE CLEAR 70 61 73 S10 30.08 $$ SDZ012>016-024>037-041>051-057-063-072>074-170800- SOUTHWEST AND SOUTH CENTRAL SOUTH DAKOTA CITY SKY/WX TMP DP RH WIND PRES REMARKS RAPID CTY ARPT CLEAR 64 58 80 SE7 30.15S PIERRE CLEAR 64 59 83 S9 30.11 ELLSWORTH AFB CLEAR 69 57 65 S10 30.12S PINE RIDGE CLEAR 62 59 90 S10G21 30.18R SPEARFISH FAIR 70 48 46 SW8 30.16S WINNER CLEAR 62 59 90 S6 30.16 $$ SDZ004>011-016>023-039-040-170800- NORTHEAST SOUTH DAKOTA CITY SKY/WX TMP DP RH WIND PRES REMARKS ABERDEEN CLEAR 64 61 90 SW6 30.11 WATERTOWN PTCLDY 63 60 90 S6 30.14 BROOKINGS CLEAR 60 60 100 CALM 30.17 SISSETON N/A 72 61 68 SW13 30.08F $$ SDZ017-020-022-023-036>040-048>070-170800- SOUTHEAST SOUTH DAKOTA CITY SKY/WX TMP DP RH WIND PRES REMARKS SIOUX FALLS CLEAR 64 61 90 CALM 30.15S HURON NOT AVBL CHAMBERLAIN CLEAR 58 58 100 CALM 30.15F MADISON N/A 61 61 100 S6 30.16S MITCHELL CLEAR 63 60 90 CALM 30.15 YANKTON CLEAR 63 62 97 CALM 30.15 $$ ABBREVIATIONS USED IN REMARKS TC - TEMPERATURE IN CELSIUS WCI - WIND CHILL INDEX HX - HEAT INDEX VSB - VISIBILITY ASUS43 KFSD 170702 RWRFSD WEATHER ROUNDUP FOR SE SOUTH DAKOTA/SW MINNESOTA/NW IOWA NATIONAL WEATHER SERVICE SIOUX FALLS SD 200 AM CDT WED AUG 17 2022 NOTE: "FAIR" INDICATES FEW OR NO CLOUDS BELOW 12,000 FEET WITH NO SIGNIFICANT WEATHER AND OR OBSTRUCTIONS TO VISIBILITY. SDZ038>040-050-052>070-170800- SOUTHEAST SOUTH DAKOTA CITY SKY/WX TMP DP RH WIND PRES REMARKS BROOKINGS CLEAR 60 60 100 CALM 30.17 CHAMBERLAIN CLEAR 58 58 100 CALM 30.15F HURON NOT AVBL MADISON N/A 61 61 100 S6 30.16S MITCHELL CLEAR 63 60 90 CALM 30.15 SIOUX FALLS CLEAR 64 61 90 CALM 30.15S WINNER CLEAR 62 59 90 S6 30.16 YANKTON CLEAR 63 62 97 CALM 30.15 $$ MNZ071-072-080-081-089-090-097-098-170800- SOUTHWEST MINNESOTA CITY SKY/WX TMP DP RH WIND PRES REMARKS FAIRMONT CLEAR 60 59 96 CALM 30.17 JACKSON N/A 59 59 100 S3 30.18S VSB 1 MARSHALL CLEAR 63 60 90 SW7 30.15 MONTEVIDEO CLEAR 64 61 88 S5 30.13F REDWOOD FALLS CLEAR 63 61 93 CALM 30.13 TRACY CLEAR 64 59 84 SW7 30.15F WINDOM FOG 59 57 94 CALM 30.16S VSB 3/4 WORTHINGTON CLEAR 60 59 96 CALM 30.18 $$ IAZ001>003-012>014-020>022-031-032-NEZ013-014-SDZ071-170800- NORTHWEST IOWA CITY SKY/WX TMP DP RH WIND PRES REMARKS ESTHERVILLE CLEAR 60 57 89 CALM 30.16 FOG LE MARS FOG 61 61 100 CALM 30.14S VSB 1/2 MAURICE FAIR 63 63 100 E3 30.14R SHELDON CLEAR 57 57 100 CALM 30.15 SIOUX CITY CLEAR 63 63 100 CALM 30.14S FOG SPENCER CLEAR 61 57 87 CALM 30.17 STORM LAKE CLEAR 61 61 100 SE6 30.17 $$ ABBREVIATIONS USED IN REMARKS TC - TEMPERATURE IN CELSIUS WCI - WIND CHILL INDEX HX - HEAT INDEX VSB - VISIBILITY ASUS43 KFSD 170710 RWRSD WEATHER ROUNDUP FOR SOUTH DAKOTA NATIONAL WEATHER SERVICE SIOUX FALLS SD 200 AM CDT WED AUG 17 2022 NOTE: "FAIR" INDICATES FEW OR NO CLOUDS BELOW 12,000 FEET WITH NO SIGNIFICANT WEATHER AND/OR OBSTRUCTIONS TO VISIBILITY. SDZ001>005-009-010-012>017-170800- NORTHWEST AND NORTH CENTRAL SOUTH DAKOTA CITY SKY/WX TMP DP RH WIND PRES REMARKS BUFFALO N/A 67 53 61 SE7 30.08S FAITH N/A 63 57 81 S14 30.11F MOBRIDGE CLEAR 70 61 73 S10 30.08 $$ SDZ012>016-024>037-041>051-057-063-072>074-170800- SOUTHWEST AND SOUTH CENTRAL SOUTH DAKOTA CITY SKY/WX TMP DP RH WIND PRES REMARKS RAPID CTY ARPT CLEAR 64 58 80 SE7 30.15S PIERRE CLEAR 64 59 83 S9 30.11 ELLSWORTH AFB CLEAR 69 57 65 S10 30.12S PINE RIDGE CLEAR 62 59 90 S10G21 30.18R SPEARFISH FAIR 70 48 46 SW8 30.16S WINNER CLEAR 62 59 90 S6 30.16 $$ SDZ004>011-016>023-039-040-170800- NORTHEAST SOUTH DAKOTA CITY SKY/WX TMP DP RH WIND PRES REMARKS ABERDEEN PTCLDY 64 61 90 SW6 30.11 WATERTOWN PTCLDY 63 60 90 S6 30.14 BROOKINGS CLEAR 60 60 100 CALM 30.17 SISSETON N/A 72 61 68 SW13 30.08F $$ SDZ017-020-022-023-036>040-048>070-170800- SOUTHEAST SOUTH DAKOTA CITY SKY/WX TMP DP RH WIND PRES REMARKS SIOUX FALLS CLEAR 64 61 90 CALM 30.15S HURON NOT AVBL CHAMBERLAIN CLEAR 58 58 100 CALM 30.15F MADISON N/A 61 61 100 S6 30.16S MITCHELL CLEAR 63 60 90 CALM 30.15 YANKTON CLEAR 63 62 97 CALM 30.15 $$ ABBREVIATIONS USED IN REMARKS TC - TEMPERATURE IN CELSIUS WCI - WIND CHILL INDEX HX - HEAT INDEX VSB - VISIBILITY ASUS43 KFSD 170710 RWRFSD WEATHER ROUNDUP FOR SE SOUTH DAKOTA/SW MINNESOTA/NW IOWA NATIONAL WEATHER SERVICE SIOUX FALLS SD 200 AM CDT WED AUG 17 2022 NOTE: "FAIR" INDICATES FEW OR NO CLOUDS BELOW 12,000 FEET WITH NO SIGNIFICANT WEATHER AND OR OBSTRUCTIONS TO VISIBILITY. SDZ038>040-050-052>070-170800- SOUTHEAST SOUTH DAKOTA CITY SKY/WX TMP DP RH WIND PRES REMARKS BROOKINGS CLEAR 60 60 100 CALM 30.17 CHAMBERLAIN CLEAR 58 58 100 CALM 30.15F HURON NOT AVBL MADISON N/A 61 61 100 S6 30.16S MITCHELL CLEAR 63 60 90 CALM 30.15 SIOUX FALLS CLEAR 64 61 90 CALM 30.15S WINNER CLEAR 62 59 90 S6 30.16 YANKTON CLEAR 63 62 97 CALM 30.15 $$ MNZ071-072-080-081-089-090-097-098-170800- SOUTHWEST MINNESOTA CITY SKY/WX TMP DP RH WIND PRES REMARKS FAIRMONT CLEAR 60 59 96 CALM 30.17 JACKSON N/A 59 59 100 S3 30.18S VSB 1 MARSHALL CLEAR 63 60 90 SW7 30.15 MONTEVIDEO CLEAR 64 61 88 S5 30.13F REDWOOD FALLS CLEAR 63 61 93 CALM 30.13 TRACY CLEAR 64 59 84 SW7 30.15F WINDOM FOG 59 57 94 CALM 30.16S VSB 3/4 WORTHINGTON CLEAR 60 59 96 CALM 30.18 $$ IAZ001>003-012>014-020>022-031-032-NEZ013-014-SDZ071-170800- NORTHWEST IOWA CITY SKY/WX TMP DP RH WIND PRES REMARKS ESTHERVILLE CLEAR 60 57 89 CALM 30.16 FOG LE MARS FOG 61 61 100 CALM 30.14S VSB 1/2 MAURICE FAIR 63 63 100 E3 30.14R SHELDON CLEAR 57 57 100 CALM 30.15 SIOUX CITY CLEAR 63 63 100 CALM 30.14S FOG SPENCER CLEAR 61 57 87 CALM 30.17 STORM LAKE CLEAR 61 61 100 SE6 30.17 $$ ABBREVIATIONS USED IN REMARKS TC - TEMPERATURE IN CELSIUS WCI - WIND CHILL INDEX HX - HEAT INDEX VSB - VISIBILITY